STARLINK-34483

Last updated on Thu Jul 03 2025 00:02:06 GMT+0000 (Coordinated Universal Time)

1 64367U 25126Z 25183.58335648 -.01413111 00000+0 -17085-1 0 9998 2 64367 69.9994 310.1813 0003091 269.1382 341.7474 15.63229079 4328
UTC large
Height (km)
Speed (km/s)
/
Latitude / Longitude
Inclination (degrees)
Orbital Period (minutes)
Azimuth
Elevation
Range (km)
Doppler Factor

Next 0 passes for location: London (51.5072 / 0.1276)

Sorry there are no passes over London.